Location: Wien
(48.2082°N, 16.3738°E)
Time: 12:42:59
(UTC+02:00)

Tiros 1 despin weight - Pass Details

Date: 17 September 2024
Orbit: 573 x 615 km, 48.2° (Epoch: 06 October)

Event Time Altitude Azimuth Distance (km) Brightness Sun altitude
Rises 09:26:55 0° 282° (WNW) 2,890 ? 26.7°
Reaches altitude 10° 09:29:40 10° 267° (W) 1,980 ? 27.1°
Maximum altitude 09:33:04 21° 218° (SW) 1,390 ? 27.6°
Drops below altitude 10° 09:36:27 10° 170° (S) 1,961 ? 28.1°
Sets 09:39:11 0° 154° (SSE) 2,855 ? 28.5°
